Location: City of Moscow
(46.7306°N, 116.9989°W)
Time: 23:19:15
(UTC+00:00)

Cosmos 1892 Rocket - Visible Passes

Search period start: 13 March 2026 00:00
Search period end: 23 March 2026 00:00
Orbit: 599 x 626 km, 82.5° (Epoch: 13 March)

Date Brightness Start Highest point End Pass type
(mag) Time Alt. Az. Time Alt. Az. Time Alt. Az.
13 Mar 6.8 10:27:05 10° NE 10:28:14 11° ENE 10:29:24 10° ENE visible
13 Mar 3.5 12:02:13 10° N 12:06:39 89° W 12:11:05 10° S visible
14 Mar 6.2 10:40:49 10° NNE 10:43:50 18° ENE 10:46:50 10° ESE visible
14 Mar 3.7 12:17:35 10° NNW 12:21:53 51° W 12:26:10 10° S visible
15 Mar 7.0 02:31:51 10° W 02:33:07 11° WNW 02:34:24 10° NW visible
15 Mar 5.5 10:55:30 10° NNE 10:59:20 28° ENE 11:02:35 13° SE visible
15 Mar 4.3 12:33:10 10° NNW 12:37:02 30° W 12:39:26 18° SW visible
16 Mar 4.5 11:10:28 10° N 11:14:45 46° ENE 11:15:56 37° ESE visible
16 Mar 4.9 12:49:04 10° NW 12:52:06 18° W 12:52:51 18° W visible
17 Mar 3.6 11:25:37 10° N 11:30:01 80° ENE 11:30:01 80° ENE visible
17 Mar 5.5 13:05:58 10° WNW 13:06:58 11° W 13:06:58 11° W visible
18 Mar 6.3 10:04:27 10° NNE 10:07:10 16° ENE 10:07:27 16° ENE visible
18 Mar 3.9 11:40:57 10° NNW 11:44:25 48° NW 11:44:25 48° NW visible
19 Mar 5.7 10:19:00 10° NNE 10:22:01 24° NE 10:22:01 24° NE visible
19 Mar 4.8 11:56:28 10° NNW 11:58:59 27° NW 11:58:59 27° NW visible
20 Mar 5.3 10:33:55 10° N 10:36:42 31° NNE 10:36:42 31° NNE visible
20 Mar 5.4 12:12:15 10° NW 12:13:41 16° NW 12:13:41 16° NW visible
21 Mar 5.0 10:49:01 10° N 10:51:29 32° N 10:51:29 32° N visible
22 Mar 6.6 09:28:08 10° NNE 09:29:20 13° NE 09:29:20 13° NE visible
22 Mar 5.2 11:04:18 10° NNW 11:06:19 26° NNW 11:06:19 26° NNW visible
